{"data":{"norad_id":61745,"intl_designator":"2024-199L","name":"POLYTECH UNIVERSE-5","alt_names":[],"object_type":"PAYLOAD","status":"ACTIVE","operator":null,"country":"CIS","launch_date":"2024-11-04","launch_site_code":"VOSTO","launch_vehicle":null,"mission":null,"orbit_class":"UNKNOWN","rcs_meters":null,"size_class":null,"mass_kg":null,"dimensions":null,"purposes":[],"wikipedia_slug":null,"has_3d_model":false,"image_url":null,"decayed_at":null,"tle_current":{"epoch":"2026-05-25T04:18:22.265568Z","epoch_age_seconds":66390,"freshness":"FRESH","line1":"1 61745U 24199L   26145.17942437  .00049756  00000+0  63851-3 0  9999","line2":"2 61745  97.2998  22.2408 0005297  21.2882 338.8593 15.58975243134098","mean_motion":15.58975243,"eccentricity":0.0005297,"inclination_deg":97.2998,"raan_deg":22.2408,"arg_perigee_deg":21.2882,"mean_anomaly_deg":338.8593,"bstar":0.00063851,"rev_number":13409,"period_min":92.368368674601,"perigee_km":387.03623872377,"apogee_km":394.20706163777,"semimajor_km":6768.7586501808,"source":"CELESTRAK","updated_at":"2026-05-25T13:38:02.532405Z"}}}